EN

Hourly Weather Tornovoe

Today, 16 May, Sunday

Time Temperature Precipitation Wind Pressure Humidity
00:00 +21°C° 0 mm 2 mps 760 mmHg 46%
01:00 +21°C° 0 mm 2 mps 760 mmHg 47%
02:00 +20°C° 0 mm 2 mps 760 mmHg 48%
03:00 +20°C° 0 mm 2 mps 760 mmHg 49%
04:00 +20°C° 0 mm 2 mps 760 mmHg 49%
05:00 +21°C° 0 mm 2 mps 760 mmHg 50%
06:00 +23°C° 0 mm 2 mps 760 mmHg 50%
07:00 +25°C° 0 mm 2 mps 760 mmHg 45%
08:00 +27°C° 0 mm 3 mps 760 mmHg 39%
09:00 +29°C° 0 mm 4 mps 760 mmHg 34%
10:00 +30°C° 0 mm 4 mps 760 mmHg 31%
11:00 +33°C° 0 mm 5 mps 760 mmHg 27%
12:00 +34°C° 0 mm 6 mps 760 mmHg 24%
13:00 +34°C° 0 mm 5 mps 760 mmHg 23%
14:00 +34°C° 0 mm 5 mps 760 mmHg 22%
15:00 +34°C° 0 mm 5 mps 759 mmHg 22%
16:00 +33°C° 0 mm 4 mps 759 mmHg 27%
17:00 +31°C° 0 mm 3 mps 759 mmHg 31%
18:00 +30°C° 0 mm 2 mps 758 mmHg 36%
19:00 +28°C° 0 mm 2 mps 759 mmHg 37%
20:00 +26°C° 0 mm 2 mps 759 mmHg 39%
21:00 +25°C° 0 mm 2 mps 759 mmHg 41%
22:00 +24°C° 0 mm 2 mps 759 mmHg 45%
23:00 +23°C° 0 mm 2 mps 759 mmHg 49%

Tomorrow, 17 May, Monday

Time Temperature Precipitation Wind Pressure Humidity
00:00 +22°C° 0 mm 1 mps 759 mmHg 54%
01:00 +22°C° 0 mm 1 mps 759 mmHg 53%
02:00 +22°C° 0 mm 1 mps 759 mmHg 52%
03:00 +22°C° 0 mm 1 mps 759 mmHg 51%
04:00 +22°C° 0 mm 1 mps 760 mmHg 52%
05:00 +23°C° 0 mm 2 mps 760 mmHg 54%
06:00 +23°C° 0 mm 2 mps 760 mmHg 55%
07:00 +25°C° 0 mm 2 mps 760 mmHg 49%
08:00 +27°C° 0 mm 2 mps 760 mmHg 43%
09:00 +29°C° 0 mm 2 mps 760 mmHg 37%
10:00 +30°C° 0 mm 3 mps 760 mmHg 33%
11:00 +33°C° 0 mm 3 mps 760 mmHg 29%
12:00 +34°C° 0 mm 3 mps 760 mmHg 25%
13:00 +34°C° 0 mm 3 mps 760 mmHg 24%
14:00 +34°C° 0 mm 3 mps 759 mmHg 23%
15:00 +34°C° 0 mm 3 mps 759 mmHg 22%
16:00 +32°C° 0 mm 2 mps 759 mmHg 27%
17:00 +30°C° 0 mm 2 mps 759 mmHg 32%
18:00 +29°C° 0 mm 1 mps 759 mmHg 36%
19:00 +27°C° 0 mm 1 mps 759 mmHg 38%
20:00 +26°C° 0 mm 1 mps 759 mmHg 40%
21:00 +24°C° 0 mm 1 mps 759 mmHg 43%
22:00 +23°C° 0 mm 1 mps 759 mmHg 44%
23:00 +23°C° 0 mm 1 mps 759 mmHg 45%

Day after tomorrow, 18 May, Tuesday

Time Temperature Precipitation Wind Pressure Humidity
00:00 +22°C° 0 mm 1 mps 759 mmHg 46%
01:00 +22°C° 0 mm 1 mps 759 mmHg 47%
02:00 +21°C° 0 mm 1 mps 759 mmHg 48%
03:00 +21°C° 0 mm 1 mps 759 mmHg 49%
04:00 +22°C° 0 mm 1 mps 759 mmHg 48%
05:00 +23°C° 0 mm 1 mps 759 mmHg 47%
06:00 +24°C° 0 mm 1 mps 759 mmHg 46%
07:00 +26°C° 0 mm 1 mps 759 mmHg 40%
08:00 +28°C° 0 mm 2 mps 759 mmHg 35%
09:00 +30°C° 0 mm 2 mps 759 mmHg 29%
10:00 +31°C° 0 mm 2 mps 759 mmHg 26%
11:00 +32°C° 0 mm 2 mps 759 mmHg 23%
12:00 +34°C° 0 mm 2 mps 759 mmHg 19%
13:00 +35°C° 0 mm 2 mps 759 mmHg 19%
14:00 +35°C° 0 mm 2 mps 758 mmHg 18%
15:00 +35°C° 0 mm 2 mps 758 mmHg 17%
16:00 +32°C° 0 mm 2 mps 758 mmHg 22%
17:00 +31°C° 0 mm 2 mps 758 mmHg 28%
18:00 +30°C° 0 mm 3 mps 758 mmHg 33%
19:00 +28°C° 0 mm 2 mps 758 mmHg 33%
20:00 +26°C° 0 mm 2 mps 758 mmHg 33%
21:00 +25°C° 0 mm 2 mps 758 mmHg 33%
22:00 +24°C° 0 mm 3 mps 758 mmHg 43%
23:00 +21°C° 0 mm 3 mps 758 mmHg 52%

19 May, Wednesday

Time Temperature Precipitation Wind Pressure Humidity
00:00 +20°C° 0 mm 3 mps 758 mmHg 62%
01:00 +20°C° 0 mm 3 mps 759 mmHg 67%
02:00 +20°C° 0 mm 3 mps 759 mmHg 71%
03:00 +19°C° 0 mm 3 mps 759 mmHg 75%
04:00 +20°C° 0 mm 3 mps 759 mmHg 72%
05:00 +21°C° 0 mm 4 mps 759 mmHg 69%
06:00 +21°C° 0 mm 4 mps 759 mmHg 65%
07:00 +23°C° 0 mm 4 mps 759 mmHg 59%
08:00 +26°C° 0 mm 4 mps 759 mmHg 52%
09:00 +27°C° 0 mm 5 mps 758 mmHg 45%
10:00 +28°C° 0 mm 5 mps 758 mmHg 42%
11:00 +29°C° 0 mm 5 mps 758 mmHg 39%
12:00 +30°C° 0 mm 5 mps 758 mmHg 36%
13:00 +32°C° 0 mm 5 mps 758 mmHg 35%
14:00 +32°C° 0 mm 5 mps 758 mmHg 33%
15:00 +32°C° 0 mm 5 mps 758 mmHg 32%
16:00 +30°C° 0 mm 5 mps 758 mmHg 35%
17:00 +29°C° 0 mm 5 mps 757 mmHg 38%
18:00 +28°C° 0 mm 5 mps 757 mmHg 42%
19:00 +27°C° 0 mm 5 mps 758 mmHg 44%
20:00 +26°C° 0 mm 5 mps 758 mmHg 47%
21:00 +23°C° 0 mm 5 mps 758 mmHg 50%
22:00 +23°C° 0 mm 5 mps 758 mmHg 50%
23:00 +22°C° 0 mm 5 mps 758 mmHg 50%

20 May, Thursday

Time Temperature Precipitation Wind Pressure Humidity
00:00 +21°C° 0 mm 5 mps 758 mmHg 50%
01:00 +20°C° 0 mm 5 mps 758 mmHg 51%
02:00 +19°C° 0 mm 5 mps 758 mmHg 52%
03:00 +19°C° 0 mm 4 mps 759 mmHg 53%
04:00 +19°C° 0 mm 4 mps 759 mmHg 54%
05:00 +19°C° 0 mm 5 mps 759 mmHg 55%
06:00 +19°C° 0 mm 5 mps 759 mmHg 56%
07:00 +21°C° 0 mm 5 mps 759 mmHg 52%
08:00 +23°C° 0 mm 6 mps 759 mmHg 48%
09:00 +24°C° 0 mm 6 mps 759 mmHg 44%
10:00 +26°C° 0 mm 6 mps 758 mmHg 42%
11:00 +27°C° 0 mm 6 mps 758 mmHg 41%
12:00 +28°C° 0 mm 6 mps 758 mmHg 39%
13:00 +28°C° 0 mm 6 mps 758 mmHg 37%
14:00 +29°C° 0 mm 5 mps 758 mmHg 35%
15:00 +29°C° 0 mm 5 mps 757 mmHg 33%
16:00 +28°C° 0 mm 5 mps 757 mmHg 36%
17:00 +27°C° 0 mm 5 mps 757 mmHg 38%
18:00 +26°C° 0 mm 5 mps 757 mmHg 41%
19:00 +23°C° 0 mm 4 mps 757 mmHg 44%
20:00 +22°C° 0 mm 3 mps 757 mmHg 48%
21:00 +20°C° 0 mm 2 mps 757 mmHg 51%
22:00 +19°C° 0 mm 2 mps 757 mmHg 57%
23:00 +18°C° 0 mm 2 mps 757 mmHg 62%

21 May, Friday

Time Temperature Precipitation Wind Pressure Humidity
00:00 +18°C° 0 mm 1 mps 757 mmHg 68%
01:00 +17°C° 0 mm 2 mps 758 mmHg 74%
02:00 +16°C° 0 mm 2 mps 758 mmHg 80%
03:00 +15°C° 0 mm 2 mps 758 mmHg 86%
04:00 +16°C° 0 mm 2 mps 758 mmHg 83%
05:00 +17°C° 0 mm 2 mps 759 mmHg 81%
06:00 +17°C° 0 mm 2 mps 759 mmHg 78%
07:00 +19°C° 0 mm 3 mps 759 mmHg 73%
08:00 +20°C° 0 mm 3 mps 759 mmHg 67%
09:00 +21°C° 0 mm 3 mps 759 mmHg 62%
10:00 +21°C° 0.5 mm 3 mps 759 mmHg 64%
11:00 +21°C° 0.5 mm 4 mps 760 mmHg 65%
12:00 +21°C° 0.5 mm 4 mps 760 mmHg 67%
13:00 +21°C° 0.7 mm 4 mps 760 mmHg 66%
14:00 +22°C° 0.7 mm 4 mps 760 mmHg 65%
15:00 +22°C° 0.7 mm 3 mps 760 mmHg 63%
16:00 +22°C° 0.5 mm 3 mps 760 mmHg 66%
17:00 +23°C° 0.5 mm 2 mps 760 mmHg 69%
18:00 +21°C° 0.5 mm 2 mps 760 mmHg 72%
19:00 +21°C° 0.1 mm 1 mps 761 mmHg 75%
20:00 +20°C° 0.1 mm 1 mps 761 mmHg 78%
21:00 +19°C° 0.1 mm 1 mps 761 mmHg 81%
22:00 +18°C° 0 mm 1 mps 761 mmHg 83%
23:00 +18°C° 0 mm 1 mps 761 mmHg 84%
Show more

We Need Your Consent

Meteoprog and our Service Providers may store and access personal data such as cookies, device identifiers or other similar technologies on your device and process such data to personalise content and ads, as well as provide social media features and to analyse the traffic.

  • Store and/or access information on your device

    Cookies, device identifiers or other information can be stored or accessed on your device for the purposes indicated above.

  • Personalised ads and content, ad and content measurement, audience insights, and products development

    Ads and content can be personalised based on a profile. More data can be added to better personalise ads and content. Ad and content performance can be measured. Insights about the audience who saw the ads and content can be derived. Such data can be used to develop or improve user’s experience, systems and software.

By clicking ‘I Agree’ you will allow the use of indicated cookies, device identifiers, web beacons or other similar technologies. Your settings can be changed in the browser on your device.

For certain purposes, legitimate interests may be relied on, rather than consent. You can read more about this in our Privacy and Cookie Policy.